Time,TemperatureF,DewpointF,PressureIn,WindDirection,WindDirectionDegrees,WindSpeedMPH,WindSpeedGustMPH,Humidity,HourlyPrecipIn,Conditions,Clouds,dailyrainin,SoftwareType,DateUTC
2013-11-05 00:01:00,62.5,32.2,29.84,SSW,205,1.0,8.0,32,0.00,,,0.00,Wunderground v.1.15,2013-11-05 07:01:00,
2013-11-05 00:06:00,62.3,32.0,29.84,West,267,2.0,10.0,32,0.00,,,0.00,Wunderground v.1.15,2013-11-05 07:06:00,
2013-11-05 00:11:00,62.2,32.0,29.84,WSW,249,2.0,11.0,32,0.00,,,0.00,Wunderground v.1.15,2013-11-05 07:11:00,
2013-11-05 00:16:00,62.1,32.6,29.84,NW,323,3.0,11.0,33,0.00,,,0.00,Wunderground v.1.15,2013-11-05 07:16:00,
2013-11-05 00:21:00,62.0,31.8,29.85,WNW,294,4.0,8.0,32,0.00,,,0.00,Wunderground v.1.15,2013-11-05 07:21:00,
2013-11-05 00:26:00,61.9,32.5,29.85,North,359,8.0,10.0,33,0.00,,,0.00,Wunderground v.1.15,2013-11-05 07:26:00,
2013-11-05 00:31:00,61.8,32.4,29.85,NNE,29,4.0,8.0,33,0.00,,,0.00,Wunderground v.1.15,2013-11-05 07:31:00,
2013-11-05 00:36:00,61.6,32.2,29.85,NE,39,6.0,10.0,33,0.00,,,0.00,Wunderground v.1.15,2013-11-05 07:36:00,
2013-11-05 00:41:00,61.3,32.7,29.86,NNE,27,5.0,10.0,34,0.00,,,0.00,Wunderground v.1.15,2013-11-05 07:41:00,
2013-11-05 00:46:00,61.1,32.5,29.86,NNE,16,4.0,10.0,34,0.00,,,0.00,Wunderground v.1.15,2013-11-05 07:46:00,
2013-11-05 00:51:00,61.0,32.4,29.86,NE,43,8.0,9.0,34,0.00,,,0.00,Wunderground v.1.15,2013-11-05 07:51:00,
2013-11-05 00:56:00,60.8,33.0,29.86,North,350,5.0,9.0,35,0.00,,,0.00,Wunderground v.1.15,2013-11-05 07:56:00,
2013-11-05 01:01:00,60.5,32.7,29.86,NNW,332,5.0,8.0,35,0.00,,,0.00,Wunderground v.1.15,2013-11-05 08:01:00,
2013-11-05 01:06:00,60.3,32.5,29.86,North,358,5.0,10.0,35,0.00,,,0.00,Wunderground v.1.15,2013-11-05 08:06:00,
2013-11-05 01:11:00,60.5,32.0,29.86,North,11,8.0,11.0,34,0.00,,,0.00,Wunderground v.1.15,2013-11-05 08:11:00,
2013-11-05 01:16:00,60.7,32.1,29.87,NNE,30,3.0,11.0,34,0.00,,,0.00,Wunderground v.1.15,2013-11-05 08:16:00,
2013-11-05 01:21:00,60.8,31.5,29.87,NNE,20,0.0,5.0,33,0.00,,,0.00,Wunderground v.1.15,2013-11-05 08:21:00,
2013-11-05 01:26:00,60.5,31.2,29.87,NNW,347,2.0,5.0,33,0.00,,,0.00,Wunderground v.1.15,2013-11-05 08:26:00,
2013-11-05 01:31:00,60.3,31.8,29.87,NNW,343,0.0,2.0,34,0.00,,,0.00,Wunderground v.1.15,2013-11-05 08:31:00,
2013-11-05 01:36:00,60.1,31.6,29.87,ENE,63,2.0,4.0,34,0.00,,,0.00,Wunderground v.1.15,2013-11-05 08:36:00,
2013-11-05 01:41:00,60.0,30.8,29.88,North,5,1.0,3.0,33,0.00,,,0.00,Wunderground v.1.15,2013-11-05 08:41:00,
2013-11-05 01:46:00,59.8,30.6,29.88,NE,47,0.0,3.0,33,0.00,,,0.00,Wunderground v.1.15,2013-11-05 08:46:00,
2013-11-05 01:51:00,59.6,31.2,29.88,NNE,30,0.0,1.0,34,0.00,,,0.00,Wunderground v.1.15,2013-11-05 08:51:00,
2013-11-05 01:56:00,59.3,30.9,29.88,NNW,346,0.0,1.0,34,0.00,,,0.00,Wunderground v.1.15,2013-11-05 08:56:00,
2013-11-05 02:01:00,58.8,30.5,29.88,East,79,0.0,1.0,34,0.00,,,0.00,Wunderground v.1.15,2013-11-05 09:01:00,
2013-11-05 02:06:00,58.5,30.2,29.88,NNW,334,4.0,5.0,34,0.00,,,0.00,Wunderground v.1.15,2013-11-05 09:06:00,
2013-11-05 02:11:00,58.6,31.0,29.88,NNW,327,0.0,0.0,35,0.00,,,0.00,Wunderground v.1.15,2013-11-05 09:11:00,
2013-11-05 02:16:00,58.2,30.7,29.88,WNW,297,0.0,1.0,35,0.00,,,0.00,Wunderground v.1.15,2013-11-05 09:16:00,
2013-11-05 02:21:00,57.9,30.4,29.88,North,350,0.0,1.0,35,0.00,,,0.00,Wunderground v.1.15,2013-11-05 09:21:00,
2013-11-05 02:26:00,57.9,30.4,29.88,NNW,328,1.0,2.0,35,0.00,,,0.00,Wunderground v.1.15,2013-11-05 09:26:00,
2013-11-05 02:31:00,58.2,30.7,29.88,NNW,334,0.0,2.0,35,0.00,,,0.00,Wunderground v.1.15,2013-11-05 09:31:00,
2013-11-05 02:36:00,58.1,30.6,29.89,NNW,339,1.0,2.0,35,0.00,,,0.00,Wunderground v.1.15,2013-11-05 09:36:00,
2013-11-05 02:41:00,58.2,30.7,29.89,NNE,29,0.0,0.0,35,0.00,,,0.00,Wunderground v.1.15,2013-11-05 09:41:00,
2013-11-05 02:46:00,58.3,30.7,29.89,ESE,107,0.0,2.0,35,0.00,,,0.00,Wunderground v.1.15,2013-11-05 09:46:00,
2013-11-05 02:51:00,58.3,30.7,29.90,West,278,0.0,1.0,35,0.00,,,0.00,Wunderground v.1.15,2013-11-05 09:51:00,
2013-11-05 02:56:00,58.2,30.7,29.90,West,262,0.0,1.0,35,0.00,,,0.00,Wunderground v.1.15,2013-11-05 09:56:00,
2013-11-05 03:01:00,58.2,29.9,29.91,West,278,0.0,2.0,34,0.00,,,0.00,Wunderground v.1.15,2013-11-05 10:01:00,
2013-11-05 03:06:00,58.1,29.8,29.91,West,277,0.0,2.0,34,0.00,,,0.00,Wunderground v.1.15,2013-11-05 10:06:00,
2013-11-05 03:11:00,57.9,29.7,29.91,West,276,0.0,0.0,34,0.00,,,0.00,Wunderground v.1.15,2013-11-05 10:11:00,
2013-11-05 03:15:00,58.0,29.8,29.92,ENE,70,0.0,1.0,34,0.00,,,0.00,Wunderground v.1.15,2013-11-05 10:15:00,
2013-11-05 03:20:00,58.1,29.8,29.92,ENE,58,0.0,1.0,34,0.00,,,0.00,Wunderground v.1.15,2013-11-05 10:20:00,
2013-11-05 03:25:00,57.9,29.7,29.92,NW,311,0.0,4.0,34,0.00,,,0.00,Wunderground v.1.15,2013-11-05 10:25:00,
2013-11-05 03:30:00,58.0,29.0,29.92,NNW,348,5.0,6.0,33,0.00,,,0.00,Wunderground v.1.15,2013-11-05 10:30:00,
2013-11-05 03:35:00,59.0,29.2,29.92,North,356,0.0,6.0,32,0.00,,,0.00,Wunderground v.1.15,2013-11-05 10:35:00,
2013-11-05 03:40:00,59.2,28.5,29.92,NNW,338,0.0,1.0,31,0.00,,,0.00,Wunderground v.1.15,2013-11-05 10:40:00,
2013-11-05 03:45:00,59.2,28.5,29.92,ESE,112,1.0,7.0,31,0.00,,,0.00,Wunderground v.1.15,2013-11-05 10:45:00,
2013-11-05 03:50:00,59.5,28.8,29.92,ENE,70,1.0,2.0,31,0.00,,,0.00,Wunderground v.1.15,2013-11-05 10:50:00,
2013-11-05 03:55:00,59.6,28.1,29.93,East,79,0.0,9.0,30,0.00,,,0.00,Wunderground v.1.15,2013-11-05 10:55:00,
2013-11-05 04:00:00,59.5,28.0,29.93,East,87,0.0,8.0,30,0.00,,,0.00,Wunderground v.1.15,2013-11-05 11:00:00,
2013-11-05 04:05:00,59.3,28.6,29.93,SSW,207,0.0,8.0,31,0.00,,,0.00,Wunderground v.1.15,2013-11-05 11:05:00,
2013-11-05 04:10:00,59.1,28.5,29.93,NNW,327,2.0,4.0,31,0.00,,,0.00,Wunderground v.1.15,2013-11-05 11:10:00,
2013-11-05 04:15:00,58.7,28.1,29.93,NNW,346,7.0,11.0,31,0.00,,,0.00,Wunderground v.1.15,2013-11-05 11:15:00,
2013-11-05 04:20:00,58.8,28.2,29.94,NNW,330,6.0,10.0,31,0.00,,,0.00,Wunderground v.1.15,2013-11-05 11:20:00,
2013-11-05 04:25:00,59.1,28.5,29.94,WNW,295,6.0,11.0,31,0.00,,,0.00,Wunderground v.1.15,2013-11-05 11:25:00,
2013-11-05 04:30:00,59.3,27.8,29.94,WNW,290,7.0,8.0,30,0.00,,,0.00,Wunderground v.1.15,2013-11-05 11:30:00,
2013-11-05 04:35:00,59.0,27.6,29.94,NW,326,7.0,8.0,30,0.00,,,0.00,Wunderground v.1.15,2013-11-05 11:35:00,
2013-11-05 04:40:00,59.3,27.8,29.95,NW,314,4.0,7.0,30,0.00,,,0.00,Wunderground v.1.15,2013-11-05 11:40:00,
2013-11-05 04:45:00,59.1,27.7,29.95,WNW,297,4.0,9.0,30,0.00,,,0.00,Wunderground v.1.15,2013-11-05 11:45:00,
2013-11-05 04:50:00,58.9,27.5,29.95,NW,316,6.0,9.0,30,0.00,,,0.00,Wunderground v.1.15,2013-11-05 11:50:00,
2013-11-05 04:55:00,58.9,27.5,29.95,WNW,283,4.0,13.0,30,0.00,,,0.00,Wunderground v.1.15,2013-11-05 11:55:00,
2013-11-05 05:00:00,58.7,28.1,29.96,NNW,335,3.0,7.0,31,0.00,,,0.00,Wunderground v.1.15,2013-11-05 12:00:00,
2013-11-05 05:05:00,58.6,27.2,29.96,NW,319,9.0,10.0,30,0.00,,,0.00,Wunderground v.1.15,2013-11-05 12:05:00,
2013-11-05 05:10:00,58.8,27.4,29.96,NW,311,2.0,4.0,30,0.00,,,0.00,Wunderground v.1.15,2013-11-05 12:10:00,
2013-11-05 05:15:00,58.7,27.3,29.97,WNW,298,1.0,8.0,30,0.00,,,0.00,Wunderground v.1.15,2013-11-05 12:15:00,
2013-11-05 05:20:00,59.0,25.9,29.97,NW,314,7.0,9.0,28,0.00,,,0.00,Wunderground v.1.15,2013-11-05 12:20:00,
2013-11-05 05:25:00,59.2,26.1,29.97,NW,319,4.0,10.0,28,0.00,,,0.00,Wunderground v.1.15,2013-11-05 12:25:00,
2013-11-05 05:30:00,59.5,26.3,29.98,NW,309,8.0,10.0,28,0.00,,,0.00,Wunderground v.1.15,2013-11-05 12:30:00,
2013-11-05 05:35:00,59.2,26.1,29.98,NW,304,1.0,10.0,28,0.00,,,0.00,Wunderground v.1.15,2013-11-05 12:35:00,
2013-11-05 05:40:00,58.8,26.6,29.98,North,356,0.0,4.0,29,0.00,,,0.00,Wunderground v.1.15,2013-11-05 12:40:00,
2013-11-05 05:45:00,58.6,26.4,29.98,WNW,283,1.0,4.0,29,0.00,,,0.00,Wunderground v.1.15,2013-11-05 12:45:00,
2013-11-05 05:50:00,58.3,26.1,29.98,ESE,112,0.0,1.0,29,0.00,,,0.00,Wunderground v.1.15,2013-11-05 12:50:00,
2013-11-05 05:55:00,57.8,25.7,29.98,East,79,0.0,3.0,29,0.00,,,0.00,Wunderground v.1.15,2013-11-05 12:55:00,
2013-11-05 06:00:00,57.5,26.3,29.99,East,97,0.0,1.0,30,0.00,,,0.00,Wunderground v.1.15,2013-11-05 13:00:00,
2013-11-05 06:05:00,57.3,25.3,29.99,ESE,112,0.0,2.0,29,0.00,,,0.00,Wunderground v.1.15,2013-11-05 13:05:00,
2013-11-05 06:10:00,56.9,26.5,29.99,WNW,283,0.0,2.0,31,0.00,,,0.00,Wunderground v.1.15,2013-11-05 13:10:00,
2013-11-05 06:15:00,56.4,26.1,29.99,West,280,0.0,2.0,31,0.00,,,0.00,Wunderground v.1.15,2013-11-05 13:15:00,
2013-11-05 06:20:00,56.3,26.0,30.00,WNW,297,1.0,2.0,31,0.00,,,0.00,Wunderground v.1.15,2013-11-05 13:20:00,
2013-11-05 06:25:00,56.3,26.0,30.00,West,279,0.0,3.0,31,0.00,,,0.00,Wunderground v.1.15,2013-11-05 13:25:00,
2013-11-05 06:30:00,56.2,26.7,30.00,NW,307,0.0,1.0,32,0.00,,,0.00,Wunderground v.1.15,2013-11-05 13:30:00,
2013-11-05 06:35:00,56.3,26.0,30.00,NNW,334,2.0,6.0,31,0.00,,,0.00,Wunderground v.1.15,2013-11-05 13:35:00,
2013-11-05 06:40:00,56.3,26.0,30.00,NW,325,5.0,6.0,31,0.00,,,0.00,Wunderground v.1.15,2013-11-05 13:40:00,
2013-11-05 06:45:00,56.1,26.6,30.00,North,5,6.0,12.0,32,0.00,,,0.00,Wunderground v.1.15,2013-11-05 13:45:00,
2013-11-05 06:50:00,56.3,26.0,30.00,NNE,20,9.0,9.0,31,0.00,,,0.00,Wunderground v.1.15,2013-11-05 13:50:00,
2013-11-05 06:55:00,56.7,25.6,30.00,NNW,330,12.0,15.0,30,0.00,,,0.00,Wunderground v.1.15,2013-11-05 13:55:00,
2013-11-05 07:00:00,56.9,25.7,30.01,North,356,5.0,7.0,30,0.00,,,0.00,Wunderground v.1.15,2013-11-05 14:00:00,
2013-11-05 07:05:00,56.4,26.1,30.01,North,8,7.0,11.0,31,0.00,,,0.00,Wunderground v.1.15,2013-11-05 14:05:00,
2013-11-05 07:10:00,55.9,25.7,30.01,NE,44,8.0,9.0,31,0.00,,,0.00,Wunderground v.1.15,2013-11-05 14:10:00,
2013-11-05 07:15:00,56.0,25.8,30.02,NE,39,7.0,15.0,31,0.00,,,0.00,Wunderground v.1.15,2013-11-05 14:15:00,
2013-11-05 07:20:00,55.7,26.3,30.02,NE,34,5.0,9.0,32,0.00,,,0.00,Wunderground v.1.15,2013-11-05 14:20:00,
2013-11-05 07:25:00,55.7,25.5,30.02,ESE,108,3.0,14.0,31,0.00,,,0.00,Wunderground v.1.15,2013-11-05 14:25:00,
2013-11-05 07:30:00,55.9,25.7,30.02,North,5,6.0,10.0,31,0.00,,,0.00,Wunderground v.1.15,2013-11-05 14:30:00,
2013-11-05 07:35:00,56.2,25.9,30.03,NNE,15,3.0,10.0,31,0.00,,,0.00,Wunderground v.1.15,2013-11-05 14:35:00,
2013-11-05 07:40:00,56.4,26.1,30.03,SW,220,3.0,9.0,31,0.00,,,0.00,Wunderground v.1.15,2013-11-05 14:40:00,
2013-11-05 07:45:00,56.8,26.5,30.03,North,4,7.0,15.0,31,0.00,,,0.00,Wunderground v.1.15,2013-11-05 14:45:00,
2013-11-05 07:50:00,57.5,26.3,30.03,NNE,13,7.0,8.0,30,0.00,,,0.00,Wunderground v.1.15,2013-11-05 14:50:00,
2013-11-05 07:55:00,58.3,26.1,30.04,NNE,20,16.0,18.0,29,0.00,,,0.00,Wunderground v.1.15,2013-11-05 14:55:00,
2013-11-05 08:00:00,58.9,25.8,30.04,North,359,13.0,13.0,28,0.00,,,0.00,Wunderground v.1.15,2013-11-05 15:00:00,
2013-11-05 08:05:00,59.4,26.2,30.05,NNE,16,14.0,19.0,28,0.00,,,0.00,Wunderground v.1.15,2013-11-05 15:05:00,
2013-11-05 08:10:00,59.7,26.5,30.05,ENE,60,4.0,12.0,28,0.00,,,0.00,Wunderground v.1.15,2013-11-05 15:10:00,
2013-11-05 08:15:00,59.7,26.5,30.05,North,5,6.0,15.0,28,0.00,,,0.00,Wunderground v.1.15,2013-11-05 15:15:00,
2013-11-05 08:20:00,59.7,26.5,30.05,North,360,7.0,10.0,28,0.00,,,0.00,Wunderground v.1.15,2013-11-05 15:20:00,
2013-11-05 08:25:00,59.8,27.4,30.06,North,360,11.0,16.0,29,0.00,,,0.00,Wunderground v.1.15,2013-11-05 15:25:00,
2013-11-05 08:30:00,60.0,26.8,30.06,South,173,1.0,7.0,28,0.00,,,0.00,Wunderground v.1.15,2013-11-05 15:30:00,
2013-11-05 08:35:00,60.3,27.0,30.06,WSW,239,1.0,13.0,28,0.00,,,0.00,Wunderground v.1.15,2013-11-05 15:35:00,
2013-11-05 08:40:00,60.6,26.4,30.06,WNW,283,7.0,7.0,27,0.00,,,0.00,Wunderground v.1.15,2013-11-05 15:40:00,
2013-11-05 08:45:00,61.0,25.8,30.07,NNE,18,8.0,16.0,26,0.00,,,0.00,Wunderground v.1.15,2013-11-05 15:45:00,
2013-11-05 08:50:00,61.5,26.3,30.07,NNW,334,11.0,11.0,26,0.00,,,0.00,Wunderground v.1.15,2013-11-05 15:50:00,
2013-11-05 08:55:00,61.8,25.6,30.07,NE,51,5.0,20.0,25,0.00,,,0.00,Wunderground v.1.15,2013-11-05 15:55:00,
2013-11-05 09:00:00,62.1,25.8,30.08,NNW,347,5.0,10.0,25,0.00,,,0.00,Wunderground v.1.15,2013-11-05 16:00:00,
2013-11-05 09:05:00,62.3,26.0,30.08,NE,47,9.0,20.0,25,0.00,,,0.00,Wunderground v.1.15,2013-11-05 16:05:00,
2013-11-05 09:10:00,62.5,25.2,30.08,NNE,23,15.0,15.0,24,0.00,,,0.00,Wunderground v.1.15,2013-11-05 16:10:00,
2013-11-05 09:15:00,62.6,25.3,30.08,NNE,15,11.0,23.0,24,0.00,,,0.00,Wunderground v.1.15,2013-11-05 16:15:00,
2013-11-05 09:20:00,62.9,25.5,30.08,NW,321,12.0,12.0,24,0.00,,,0.00,Wunderground v.1.15,2013-11-05 16:20:00,
2013-11-05 09:25:00,63.1,24.7,30.08,NNE,18,15.0,18.0,23,0.00,,,0.00,Wunderground v.1.15,2013-11-05 16:25:00,
2013-11-05 09:30:00,63.2,25.8,30.08,NNE,13,13.0,21.0,24,0.00,,,0.00,Wunderground v.1.15,2013-11-05 16:30:00,
2013-11-05 09:35:00,63.3,25.9,30.09,NNW,330,8.0,18.0,24,0.00,,,0.00,Wunderground v.1.15,2013-11-05 16:35:00,
2013-11-05 09:40:00,63.5,25.0,30.09,NNW,330,14.0,15.0,23,0.00,,,0.00,Wunderground v.1.15,2013-11-05 16:40:00,
2013-11-05 09:45:00,63.7,25.2,30.09,NNW,341,15.0,19.0,23,0.00,,,0.00,Wunderground v.1.15,2013-11-05 16:45:00,
2013-11-05 09:50:00,63.9,24.3,30.09,NW,326,16.0,20.0,22,0.00,,,0.00,Wunderground v.1.15,2013-11-05 16:50:00,
2013-11-05 09:55:00,64.1,24.4,30.09,NNE,15,11.0,20.0,22,0.00,,,0.00,Wunderground v.1.15,2013-11-05 16:55:00,
2013-11-05 10:00:00,64.2,25.6,30.10,ENE,62,19.0,19.0,23,0.00,,,0.00,Wunderground v.1.15,2013-11-05 17:00:00,
2013-11-05 10:05:00,64.4,24.7,30.10,East,91,10.0,24.0,22,0.00,,,0.00,Wunderground v.1.15,2013-11-05 17:05:00,
2013-11-05 10:10:00,64.6,24.9,30.10,NNE,27,11.0,13.0,22,0.00,,,0.00,Wunderground v.1.15,2013-11-05 17:10:00,
2013-11-05 10:15:00,64.7,23.8,30.10,NNW,333,18.0,23.0,21,0.00,,,0.00,Wunderground v.1.15,2013-11-05 17:15:00,
2013-11-05 10:20:00,64.7,23.8,30.09,ENE,69,11.0,16.0,21,0.00,,,0.00,Wunderground v.1.15,2013-11-05 17:20:00,
2013-11-05 10:25:00,64.9,24.0,30.09,NW,326,11.0,21.0,21,0.00,,,0.00,Wunderground v.1.15,2013-11-05 17:25:00,
2013-11-05 10:30:00,65.3,25.4,30.09,North,11,19.0,22.0,22,0.00,,,0.00,Wunderground v.1.15,2013-11-05 17:30:00,
2013-11-05 10:35:00,65.5,24.5,30.09,NE,34,12.0,24.0,21,0.00,,,0.00,Wunderground v.1.15,2013-11-05 17:35:00,
2013-11-05 10:40:00,65.5,24.5,30.10,NNW,332,19.0,24.0,21,0.00,,,0.00,Wunderground v.1.15,2013-11-05 17:40:00,
2013-11-05 10:45:00,65.4,23.2,30.10,NNW,333,18.0,27.0,20,0.00,,,0.00,Wunderground v.1.15,2013-11-05 17:45:00,
2013-11-05 10:50:00,65.6,23.4,30.10,North,359,11.0,27.0,20,0.00,,,0.00,Wunderground v.1.15,2013-11-05 17:50:00,
2013-11-05 10:54:00,65.9,24.8,30.10,ENE,58,16.0,23.0,21,0.00,,,0.00,Wunderground v.1.15,2013-11-05 17:54:00,
2013-11-05 10:59:00,66.3,22.8,30.10,NE,37,16.0,23.0,19,0.00,,,0.00,Wunderground v.1.15,2013-11-05 17:59:00,
2013-11-05 11:04:00,66.2,23.9,30.10,NNW,339,13.0,24.0,20,0.00,,,0.00,Wunderground v.1.15,2013-11-05 18:04:00,
2013-11-05 11:09:00,66.4,24.1,30.10,North,355,20.0,27.0,20,0.00,,,0.00,Wunderground v.1.15,2013-11-05 18:09:00,
2013-11-05 11:14:00,66.6,23.0,30.10,NNE,21,21.0,23.0,19,0.00,,,0.00,Wunderground v.1.15,2013-11-05 18:14:00,
2013-11-05 11:19:00,66.7,21.8,30.10,NNW,335,14.0,24.0,18,0.00,,,0.00,Wunderground v.1.15,2013-11-05 18:19:00,
2013-11-05 11:24:00,66.8,21.9,30.10,North,356,19.0,21.0,18,0.00,,,0.00,Wunderground v.1.15,2013-11-05 18:24:00,
2013-11-05 11:29:00,67.4,21.0,30.10,North,9,19.0,28.0,17,0.00,,,0.00,Wunderground v.1.15,2013-11-05 18:29:00,
2013-11-05 11:34:00,67.4,22.4,30.10,North,353,14.0,25.0,18,0.00,,,0.00,Wunderground v.1.15,2013-11-05 18:34:00,
2013-11-05 11:39:00,67.5,22.5,30.10,North,359,20.0,25.0,18,0.00,,,0.00,Wunderground v.1.15,2013-11-05 18:39:00,
2013-11-05 11:44:00,67.4,21.0,30.10,NW,304,18.0,27.0,17,0.00,,,0.00,Wunderground v.1.15,2013-11-05 18:44:00,
2013-11-05 11:49:00,67.5,22.5,30.10,North,6,17.0,27.0,18,0.00,,,0.00,Wunderground v.1.15,2013-11-05 18:49:00,
2013-11-05 11:54:00,67.7,22.6,30.10,NNW,333,20.0,26.0,18,0.00,,,0.00,Wunderground v.1.15,2013-11-05 18:54:00,
2013-11-05 11:59:00,67.8,22.7,30.10,North,8,23.0,26.0,18,0.00,,,0.00,Wunderground v.1.15,2013-11-05 18:59:00,
2013-11-05 12:04:00,68.1,23.0,30.09,East,90,7.0,23.0,18,0.00,,,0.00,Wunderground v.1.15,2013-11-05 19:04:00,
2013-11-05 12:09:00,68.2,21.7,30.09,NNE,14,9.0,23.0,17,0.00,,,0.00,Wunderground v.1.15,2013-11-05 19:09:00,
2013-11-05 12:14:00,68.4,21.8,30.09,East,93,14.0,22.0,17,0.00,,,0.00,Wunderground v.1.15,2013-11-05 19:14:00,
2013-11-05 12:19:00,68.5,20.5,30.09,NNE,22,13.0,22.0,16,0.00,,,0.00,Wunderground v.1.15,2013-11-05 19:19:00,
2013-11-05 12:24:00,68.6,20.6,30.09,NNW,337,8.0,24.0,16,0.00,,,0.00,Wunderground v.1.15,2013-11-05 19:24:00,
2013-11-05 12:29:00,68.6,20.6,30.09,NNE,17,10.0,24.0,16,0.00,,,0.00,Wunderground v.1.15,2013-11-05 19:29:00,
2013-11-05 12:34:00,68.9,20.8,30.09,NE,41,9.0,20.0,16,0.00,,,0.00,Wunderground v.1.15,2013-11-05 19:34:00,
2013-11-05 12:39:00,68.8,19.2,30.09,NNW,328,18.0,25.0,15,0.00,,,0.00,Wunderground v.1.15,2013-11-05 19:39:00,
2013-11-05 12:44:00,69.0,20.9,30.08,NNE,26,17.0,24.0,16,0.00,,,0.00,Wunderground v.1.15,2013-11-05 19:44:00,
2013-11-05 12:49:00,68.9,20.8,30.08,NNW,332,17.0,26.0,16,0.00,,,0.00,Wunderground v.1.15,2013-11-05 19:49:00,
2013-11-05 12:54:00,68.9,20.8,30.08,NNW,330,14.0,23.0,16,0.00,,,0.00,Wunderground v.1.15,2013-11-05 19:54:00,
2013-11-05 12:59:00,69.5,19.8,30.08,North,359,17.0,24.0,15,0.00,,,0.00,Wunderground v.1.15,2013-11-05 19:59:00,
2013-11-05 13:04:00,69.3,21.1,30.08,North,356,21.0,24.0,16,0.00,,,0.00,Wunderground v.1.15,2013-11-05 20:04:00,
2013-11-05 13:09:00,69.6,19.9,30.08,NNW,332,15.0,24.0,15,0.00,,,0.00,Wunderground v.1.15,2013-11-05 20:09:00,
2013-11-05 13:14:00,69.5,19.8,30.08,NNW,338,16.0,25.0,15,0.00,,,0.00,Wunderground v.1.15,2013-11-05 20:14:00,
2013-11-05 13:19:00,69.6,19.9,30.08,NNW,336,13.0,25.0,15,0.00,,,0.00,Wunderground v.1.15,2013-11-05 20:19:00,
2013-11-05 13:24:00,69.7,21.5,30.07,NW,318,20.0,22.0,16,0.00,,,0.00,Wunderground v.1.15,2013-11-05 20:24:00,
2013-11-05 13:29:00,69.6,18.2,30.07,North,352,20.0,23.0,14,0.00,,,0.00,Wunderground v.1.15,2013-11-05 20:29:00,
2013-11-05 13:34:00,69.7,19.9,30.07,NW,316,16.0,24.0,15,0.00,,,0.00,Wunderground v.1.15,2013-11-05 20:34:00,
2013-11-05 13:39:00,69.7,19.9,30.07,NNE,13,16.0,26.0,15,0.00,,,0.00,Wunderground v.1.15,2013-11-05 20:39:00,
2013-11-05 13:44:00,69.7,19.9,30.07,North,358,14.0,21.0,15,0.00,,,0.00,Wunderground v.1.15,2013-11-05 20:44:00,
2013-11-05 13:49:00,69.8,20.0,30.07,NNW,336,10.0,23.0,15,0.00,,,0.00,Wunderground v.1.15,2013-11-05 20:49:00,
2013-11-05 13:54:00,69.8,21.5,30.07,North,353,15.0,26.0,16,0.00,,,0.00,Wunderground v.1.15,2013-11-05 20:54:00,
2013-11-05 13:59:00,70.0,21.7,30.07,WNW,285,10.0,26.0,16,0.00,,,0.00,Wunderground v.1.15,2013-11-05 20:59:00,
2013-11-05 14:04:00,70.1,20.3,30.07,NNW,330,11.0,19.0,15,0.00,,,0.00,Wunderground v.1.15,2013-11-05 21:04:00,
2013-11-05 14:09:00,70.1,20.3,30.07,NNW,343,11.0,23.0,15,0.00,,,0.00,Wunderground v.1.15,2013-11-05 21:09:00,
2013-11-05 14:14:00,70.2,20.3,30.07,NNW,339,17.0,24.0,15,0.00,,,0.00,Wunderground v.1.15,2013-11-05 21:14:00,
2013-11-05 14:19:00,70.2,18.7,30.07,North,352,14.0,24.0,14,0.00,,,0.00,Wunderground v.1.15,2013-11-05 21:19:00,
2013-11-05 14:24:00,70.2,18.7,30.07,North,354,15.0,25.0,14,0.00,,,0.00,Wunderground v.1.15,2013-11-05 21:24:00,
2013-11-05 14:29:00,70.4,18.9,30.07,NNW,332,10.0,25.0,14,0.00,,,0.00,Wunderground v.1.15,2013-11-05 21:29:00,
2013-11-05 14:34:00,70.3,18.8,30.07,North,349,18.0,21.0,14,0.00,,,0.00,Wunderground v.1.15,2013-11-05 21:34:00,
2013-11-05 14:39:00,70.5,20.6,30.07,NNW,342,16.0,21.0,15,0.00,,,0.00,Wunderground v.1.15,2013-11-05 21:39:00,
2013-11-05 14:44:00,70.4,18.9,30.07,North,360,12.0,21.0,14,0.00,,,0.00,Wunderground v.1.15,2013-11-05 21:44:00,
2013-11-05 14:49:00,70.5,19.0,30.07,NNE,18,8.0,21.0,14,0.00,,,0.00,Wunderground v.1.15,2013-11-05 21:49:00,
2013-11-05 14:54:00,70.5,20.6,30.06,NNW,334,13.0,23.0,15,0.00,,,0.00,Wunderground v.1.15,2013-11-05 21:54:00,
2013-11-05 14:59:00,70.6,19.0,30.06,NNW,345,17.0,23.0,14,0.00,,,0.00,Wunderground v.1.15,2013-11-05 21:59:00,
2013-11-05 15:04:00,70.5,19.0,30.07,North,6,6.0,18.0,14,0.00,,,0.00,Wunderground v.1.15,2013-11-05 22:04:00,
2013-11-05 15:09:00,70.6,19.0,30.06,North,6,12.0,18.0,14,0.00,,,0.00,Wunderground v.1.15,2013-11-05 22:09:00,
2013-11-05 15:14:00,70.5,20.6,30.06,NNW,345,9.0,15.0,15,0.00,,,0.00,Wunderground v.1.15,2013-11-05 22:14:00,
2013-11-05 15:19:00,70.7,20.7,30.06,NE,43,7.0,17.0,15,0.00,,,0.00,Wunderground v.1.15,2013-11-05 22:19:00,
2013-11-05 15:24:00,70.6,20.7,30.07,NE,36,13.0,14.0,15,0.00,,,0.00,Wunderground v.1.15,2013-11-05 22:24:00,
2013-11-05 15:29:00,70.6,19.0,30.07,NE,46,10.0,19.0,14,0.00,,,0.00,Wunderground v.1.15,2013-11-05 22:29:00,
2013-11-05 15:34:00,70.6,22.2,30.07,North,349,7.0,17.0,16,0.00,,,0.00,Wunderground v.1.15,2013-11-05 22:34:00,
2013-11-05 15:39:00,70.8,20.8,30.06,NNW,332,7.0,17.0,15,0.00,,,0.00,Wunderground v.1.15,2013-11-05 22:39:00,
2013-11-05 15:44:00,70.7,19.1,30.07,North,8,3.0,16.0,14,0.00,,,0.00,Wunderground v.1.15,2013-11-05 22:44:00,
2013-11-05 15:49:00,70.6,20.7,30.07,NNW,343,12.0,16.0,15,0.00,,,0.00,Wunderground v.1.15,2013-11-05 22:49:00,
2013-11-05 15:54:00,70.6,20.7,30.07,NNW,345,10.0,16.0,15,0.00,,,0.00,Wunderground v.1.15,2013-11-05 22:54:00,
2013-11-05 15:59:00,70.7,22.3,30.07,NNE,22,9.0,16.0,16,0.00,,,0.00,Wunderground v.1.15,2013-11-05 22:59:00,
2013-11-05 16:04:00,70.6,20.7,30.07,North,354,6.0,15.0,15,0.00,,,0.00,Wunderground v.1.15,2013-11-05 23:04:00,
2013-11-05 16:09:00,70.5,20.6,30.07,NNW,330,7.0,17.0,15,0.00,,,0.00,Wunderground v.1.15,2013-11-05 23:09:00,
2013-11-05 16:14:00,70.4,22.0,30.07,NW,316,12.0,15.0,16,0.00,,,0.00,Wunderground v.1.15,2013-11-05 23:14:00,
2013-11-05 16:19:00,70.2,20.3,30.07,North,359,9.0,15.0,15,0.00,,,0.00,Wunderground v.1.15,2013-11-05 23:19:00,
2013-11-05 16:24:00,70.1,21.8,30.07,NNW,332,12.0,15.0,16,0.00,,,0.00,Wunderground v.1.15,2013-11-05 23:24:00,
2013-11-05 16:29:00,70.1,21.8,30.07,NNW,339,10.0,15.0,16,0.00,,,0.00,Wunderground v.1.15,2013-11-05 23:29:00,
2013-11-05 16:34:00,69.9,21.6,30.07,NW,316,8.0,13.0,16,0.00,,,0.00,Wunderground v.1.15,2013-11-05 23:34:00,
2013-11-05 16:39:00,69.8,23.0,30.07,North,3,12.0,13.0,17,0.00,,,0.00,Wunderground v.1.15,2013-11-05 23:39:00,
2013-11-05 16:44:00,69.6,21.4,30.07,NNE,13,12.0,13.0,16,0.00,,,0.00,Wunderground v.1.15,2013-11-05 23:44:00,
2013-11-05 16:49:00,69.4,22.7,30.07,NNW,329,10.0,15.0,17,0.00,,,0.00,Wunderground v.1.15,2013-11-05 23:49:00,
2013-11-05 16:54:00,69.1,22.4,30.08,North,9,7.0,11.0,17,0.00,,,0.00,Wunderground v.1.15,2013-11-05 23:54:00,
2013-11-05 16:59:00,68.7,23.4,30.07,North,349,7.0,11.0,18,0.00,,,0.00,Wunderground v.1.15,2013-11-05 23:59:00,
2013-11-05 17:03:00,68.3,23.1,30.08,NNW,336,6.0,9.0,18,0.00,,,0.00,Wunderground v.1.15,2013-11-06 00:03:00,
2013-11-05 17:08:00,68.0,22.9,30.08,NNE,15,8.0,11.0,18,0.00,,,0.00,Wunderground v.1.15,2013-11-06 00:08:00,
2013-11-05 17:13:00,67.6,22.5,30.08,NW,321,6.0,9.0,18,0.00,,,0.00,Wunderground v.1.15,2013-11-06 00:13:00,
2013-11-05 17:18:00,67.2,22.2,30.08,North,359,6.0,10.0,18,0.00,,,0.00,Wunderground v.1.15,2013-11-06 00:18:00,
2013-11-05 17:23:00,66.8,21.9,30.08,NNW,333,4.0,7.0,18,0.00,,,0.00,Wunderground v.1.15,2013-11-06 00:23:00,
2013-11-05 17:28:00,66.3,21.5,30.09,North,352,5.0,8.0,18,0.00,,,0.00,Wunderground v.1.15,2013-11-06 00:28:00,
2013-11-05 17:33:00,65.8,22.3,30.09,NNW,341,5.0,6.0,19,0.00,,,0.00,Wunderground v.1.15,2013-11-06 00:33:00,
2013-11-05 17:38:00,65.2,21.9,30.08,NNW,347,4.0,6.0,19,0.00,,,0.00,Wunderground v.1.15,2013-11-06 00:38:00,
2013-11-05 17:43:00,64.4,22.4,30.08,North,4,5.0,6.0,20,0.00,,,0.00,Wunderground v.1.15,2013-11-06 00:43:00,
2013-11-05 17:48:00,63.5,21.7,30.09,North,360,4.0,6.0,20,0.00,,,0.00,Wunderground v.1.15,2013-11-06 00:48:00,
2013-11-05 17:53:00,63.1,21.3,30.08,North,9,4.0,7.0,20,0.00,,,0.00,Wunderground v.1.15,2013-11-06 00:53:00,
2013-11-05 17:58:00,62.9,22.3,30.09,North,356,2.0,7.0,21,0.00,,,0.00,Wunderground v.1.15,2013-11-06 00:58:00,
2013-11-05 18:03:00,62.2,21.7,30.09,NE,44,2.0,6.0,21,0.00,,,0.00,Wunderground v.1.15,2013-11-06 01:03:00,
2013-11-05 18:08:00,61.8,21.4,30.09,North,358,4.0,9.0,21,0.00,,,0.00,Wunderground v.1.15,2013-11-06 01:08:00,
2013-11-05 18:13:00,61.1,21.9,30.09,North,8,6.0,6.0,22,0.00,,,0.00,Wunderground v.1.15,2013-11-06 01:13:00,
2013-11-05 18:18:00,60.8,20.6,30.09,NNE,33,2.0,6.0,21,0.00,,,0.00,Wunderground v.1.15,2013-11-06 01:18:00,
2013-11-05 18:23:00,60.7,20.5,30.10,North,10,4.0,7.0,21,0.00,,,0.00,Wunderground v.1.15,2013-11-06 01:23:00,
2013-11-05 18:28:00,60.9,19.5,30.10,North,6,3.0,11.0,20,0.00,,,0.00,Wunderground v.1.15,2013-11-06 01:28:00,
2013-11-05 18:33:00,60.7,19.3,30.10,North,8,1.0,4.0,20,0.00,,,0.00,Wunderground v.1.15,2013-11-06 01:33:00,
2013-11-05 18:38:00,60.5,19.2,30.10,North,359,0.0,4.0,20,0.00,,,0.00,Wunderground v.1.15,2013-11-06 01:38:00,
2013-11-05 18:43:00,60.4,17.9,30.10,NE,47,0.0,1.0,19,0.00,,,0.00,Wunderground v.1.15,2013-11-06 01:43:00,
2013-11-05 18:48:00,60.2,17.7,30.10,SW,226,0.0,1.0,19,0.00,,,0.00,Wunderground v.1.15,2013-11-06 01:48:00,
2013-11-05 18:53:00,60.1,17.6,30.11,NNW,332,0.0,2.0,19,0.00,,,0.00,Wunderground v.1.15,2013-11-06 01:53:00,
2013-11-05 18:58:00,60.0,17.6,30.11,NE,37,0.0,4.0,19,0.00,,,0.00,Wunderground v.1.15,2013-11-06 01:58:00,
2013-11-05 19:03:00,60.0,18.8,30.11,NNW,347,2.0,4.0,20,0.00,,,0.00,Wunderground v.1.15,2013-11-06 02:03:00,
2013-11-05 19:08:00,60.1,18.8,30.11,North,1,3.0,9.0,20,0.00,,,0.00,Wunderground v.1.15,2013-11-06 02:08:00,
2013-11-05 19:13:00,59.8,18.6,30.12,NNE,15,2.0,5.0,20,0.00,,,0.00,Wunderground v.1.15,2013-11-06 02:13:00,
2013-11-05 19:18:00,59.6,18.4,30.12,NE,43,0.0,5.0,20,0.00,,,0.00,Wunderground v.1.15,2013-11-06 02:18:00,
2013-11-05 19:23:00,59.5,15.9,30.12,East,84,0.0,3.0,18,0.00,,,0.00,Wunderground v.1.15,2013-11-06 02:23:00,
2013-11-05 19:28:00,59.8,16.1,30.12,East,101,0.0,3.0,18,0.00,,,0.00,Wunderground v.1.15,2013-11-06 02:28:00,
2013-11-05 19:33:00,59.9,16.2,30.12,ENE,77,0.0,1.0,18,0.00,,,0.00,Wunderground v.1.15,2013-11-06 02:33:00,
2013-11-05 19:38:00,60.1,16.4,30.13,SSE,154,0.0,2.0,18,0.00,,,0.00,Wunderground v.1.15,2013-11-06 02:38:00,
2013-11-05 19:43:00,60.3,15.2,30.13,WSW,246,1.0,2.0,17,0.00,,,0.00,Wunderground v.1.15,2013-11-06 02:43:00,
2013-11-05 19:48:00,60.3,15.2,30.13,East,84,0.0,3.0,17,0.00,,,0.00,Wunderground v.1.15,2013-11-06 02:48:00,
2013-11-05 19:53:00,60.4,16.6,30.13,ENE,77,0.0,2.0,18,0.00,,,0.00,Wunderground v.1.15,2013-11-06 02:53:00,
2013-11-05 19:58:00,60.3,16.6,30.13,NE,56,0.0,2.0,18,0.00,,,0.00,Wunderground v.1.15,2013-11-06 02:58:00,
2013-11-05 20:03:00,60.2,16.5,30.13,NE,49,0.0,1.0,18,0.00,,,0.00,Wunderground v.1.15,2013-11-06 03:03:00,
2013-11-05 20:08:00,60.0,16.3,30.13,SSW,193,0.0,2.0,18,0.00,,,0.00,Wunderground v.1.15,2013-11-06 03:08:00,
2013-11-05 20:13:00,59.9,16.2,30.13,East,86,1.0,5.0,18,0.00,,,0.00,Wunderground v.1.15,2013-11-06 03:13:00,
2013-11-05 20:18:00,60.4,16.6,30.14,ENE,68,3.0,6.0,18,0.00,,,0.00,Wunderground v.1.15,2013-11-06 03:18:00,
2013-11-05 20:23:00,60.8,15.6,30.14,ENE,57,3.0,7.0,17,0.00,,,0.00,Wunderground v.1.15,2013-11-06 03:23:00,
2013-11-05 20:28:00,61.0,17.1,30.14,East,100,2.0,7.0,18,0.00,,,0.00,Wunderground v.1.15,2013-11-06 03:28:00,
2013-11-05 20:33:00,61.0,17.1,30.14,NE,53,1.0,6.0,18,0.00,,,0.00,Wunderground v.1.15,2013-11-06 03:33:00,
2013-11-05 20:38:00,60.9,15.7,30.14,ENE,73,1.0,9.0,17,0.00,,,0.00,Wunderground v.1.15,2013-11-06 03:38:00,
2013-11-05 20:43:00,61.0,15.8,30.14,ENE,70,2.0,6.0,17,0.00,,,0.00,Wunderground v.1.15,2013-11-06 03:43:00,
2013-11-05 20:48:00,61.0,15.8,30.14,SW,232,0.0,8.0,17,0.00,,,0.00,Wunderground v.1.15,2013-11-06 03:48:00,
2013-11-05 20:53:00,60.8,15.6,30.14,East,82,0.0,4.0,17,0.00,,,0.00,Wunderground v.1.15,2013-11-06 03:53:00,
2013-11-05 20:58:00,60.4,15.3,30.14,ENE,75,0.0,4.0,17,0.00,,,0.00,Wunderground v.1.15,2013-11-06 03:58:00,
2013-11-05 21:03:00,60.0,16.3,30.14,SSW,204,0.0,2.0,18,0.00,,,0.00,Wunderground v.1.15,2013-11-06 04:03:00,
2013-11-05 21:08:00,59.7,16.1,30.14,ENE,60,0.0,2.0,18,0.00,,,0.00,Wunderground v.1.15,2013-11-06 04:08:00,
2013-11-05 21:13:00,59.3,15.7,30.14,NE,44,0.0,1.0,18,0.00,,,0.00,Wunderground v.1.15,2013-11-06 04:13:00,
2013-11-05 21:18:00,58.9,15.4,30.14,ENE,59,1.0,3.0,18,0.00,,,0.00,Wunderground v.1.15,2013-11-06 04:18:00,
2013-11-05 21:23:00,58.7,15.2,30.14,North,360,0.0,2.0,18,0.00,,,0.00,Wunderground v.1.15,2013-11-06 04:23:00,
2013-11-05 21:28:00,58.4,15.0,30.14,WSW,255,0.0,3.0,18,0.00,,,0.00,Wunderground v.1.15,2013-11-06 04:28:00,
2013-11-05 21:33:00,58.1,16.0,30.14,ENE,77,0.0,3.0,19,0.00,,,0.00,Wunderground v.1.15,2013-11-06 04:33:00,
2013-11-05 21:38:00,57.8,15.7,30.15,NE,34,0.0,3.0,19,0.00,,,0.00,Wunderground v.1.15,2013-11-06 04:38:00,
2013-11-05 21:43:00,57.8,15.7,30.15,ESE,114,0.0,2.0,19,0.00,,,0.00,Wunderground v.1.15,2013-11-06 04:43:00,
2013-11-05 21:48:00,58.1,16.0,30.15,East,96,0.0,3.0,19,0.00,,,0.00,Wunderground v.1.15,2013-11-06 04:48:00,
2013-11-05 21:53:00,58.2,14.8,30.16,ENE,65,1.0,3.0,18,0.00,,,0.00,Wunderground v.1.15,2013-11-06 04:53:00,
2013-11-05 21:58:00,58.2,14.8,30.16,ESE,107,0.0,3.0,18,0.00,,,0.00,Wunderground v.1.15,2013-11-06 04:58:00,
2013-11-05 22:01:00,58.2,14.8,30.16,ESE,118,0.0,0.0,18,0.00,,,0.00,Wunderground v.1.15,2013-11-06 05:01:00,
2013-11-05 22:06:00,58.0,15.9,30.16,NNE,29,0.0,2.0,19,0.00,,,0.00,Wunderground v.1.15,2013-11-06 05:06:00,
2013-11-05 22:11:00,57.8,15.7,30.16,WNW,283,0.0,1.0,19,0.00,,,0.00,Wunderground v.1.15,2013-11-06 05:11:00,
2013-11-05 22:16:00,57.7,15.7,30.16,NNE,20,0.0,2.0,19,0.00,,,0.00,Wunderground v.1.15,2013-11-06 05:16:00,
2013-11-05 22:21:00,57.7,15.7,30.16,SSE,167,0.0,1.0,19,0.00,,,0.00,Wunderground v.1.15,2013-11-06 05:21:00,
2013-11-05 22:26:00,57.8,15.7,30.16,NNW,342,1.0,3.0,19,0.00,,,0.00,Wunderground v.1.15,2013-11-06 05:26:00,
2013-11-05 22:31:00,58.0,14.7,30.16,NNE,18,0.0,2.0,18,0.00,,,0.00,Wunderground v.1.15,2013-11-06 05:31:00,
2013-11-05 22:36:00,58.3,14.9,30.17,SSW,210,0.0,3.0,18,0.00,,,0.00,Wunderground v.1.15,2013-11-06 05:36:00,
2013-11-05 22:41:00,58.6,15.2,30.17,ENE,65,2.0,3.0,18,0.00,,,0.00,Wunderground v.1.15,2013-11-06 05:41:00,
2013-11-05 22:46:00,58.8,15.3,30.17,SSW,201,0.0,4.0,18,0.00,,,0.00,Wunderground v.1.15,2013-11-06 05:46:00,
2013-11-05 22:51:00,58.9,15.4,30.17,ENE,73,2.0,2.0,18,0.00,,,0.00,Wunderground v.1.15,2013-11-06 05:51:00,
2013-11-05 22:56:00,59.0,15.5,30.17,East,84,1.0,3.0,18,0.00,,,0.00,Wunderground v.1.15,2013-11-06 05:56:00,
2013-11-05 23:01:00,58.8,15.3,30.17,ENE,77,1.0,1.0,18,0.00,,,0.00,Wunderground v.1.15,2013-11-06 06:01:00,
2013-11-05 23:06:00,58.6,15.2,30.17,East,86,1.0,3.0,18,0.00,,,0.00,Wunderground v.1.15,2013-11-06 06:06:00,
2013-11-05 23:11:00,58.6,15.2,30.17,ESE,110,0.0,1.0,18,0.00,,,0.00,Wunderground v.1.15,2013-11-06 06:11:00,
2013-11-05 23:16:00,58.6,15.2,30.17,WSW,250,0.0,2.0,18,0.00,,,0.00,Wunderground v.1.15,2013-11-06 06:16:00,
2013-11-05 23:21:00,58.4,15.0,30.17,East,84,0.0,1.0,18,0.00,,,0.00,Wunderground v.1.15,2013-11-06 06:21:00,
2013-11-05 23:26:00,58.2,14.8,30.17,ENE,71,0.0,1.0,18,0.00,,,0.00,Wunderground v.1.15,2013-11-06 06:26:00,
2013-11-05 23:31:00,58.1,14.8,30.17,NE,51,0.0,1.0,18,0.00,,,0.00,Wunderground v.1.15,2013-11-06 06:31:00,
2013-11-05 23:36:00,58.0,15.9,30.17,NNE,26,1.0,2.0,19,0.00,,,0.00,Wunderground v.1.15,2013-11-06 06:36:00,
2013-11-05 23:41:00,57.9,15.8,30.17,NW,314,2.0,3.0,19,0.00,,,0.00,Wunderground v.1.15,2013-11-06 06:41:00,
2013-11-05 23:46:00,57.4,15.4,30.17,NE,38,0.0,3.0,19,0.00,,,0.00,Wunderground v.1.15,2013-11-06 06:46:00,
2013-11-05 23:51:00,57.2,15.2,30.17,East,93,1.0,1.0,19,0.00,,,0.00,Wunderground v.1.15,2013-11-06 06:51:00,
2013-11-05 23:56:00,57.1,15.2,30.17,NNW,335,0.0,2.0,19,0.00,,,0.00,Wunderground v.1.15,2013-11-06 06:56:00,